Weather in Redmond

United States     47°40′11″N   122°07′21″W
temp.,
°C
wind,
m/s
gust,
m/s
humid.,
%
clouds,
%
prec.,
mm/h
press.,
hPa
HPBL,
m
16 may, sun
sun1623:00+10ene11931 0.0 101610
02:00+9ene1194100 0.0 101610
05:00+9nne11945 0.0 101610
08:00+14wnw11725 0.0 1016232
11:00+20wnw22475 0.0 1014880
14:00+24wnw22375 0.0 10131318
17:00+24nnw32397 0.0 10111378
20:00+17n237535 0.0 101064
17 may, mon
mon1723:00+9n119815 0.0 101211
02:00+10s2297100 0.0 101238
05:00+9sse2696100 0.0 1013221
08:00+12s4772100 0.0 1014973
11:00+16ssw5755100 0.0 10141572
14:00+17ssw5750100 0.1 10131924
17:00+17s6851100 0.1 10112052
20:00+12sw51170100 0.3 10121004
18 may, tue
tue1823:00+10s3996100 1.7 1012707
02:00+8s6119393 3.9 10141061
05:00+6s5128828 3.9 1017977
08:00+9ssw597261 0.1 10191226
11:00+11ssw476185 0.9 10191750
14:00+10s3584100 3.1 1019993
17:00+11ene118292 6.9 1019460
20:00+8nne2592100 1.6 1020179
19 may, wed
wed1923:00+5ne119298 1.6 102020
02:00+3ne119358 0.0 102012
05:00+2ene119520 0.0 102012
08:00+7e018277 0.0 1020276
11:00+10nnw336676 0.4 10191296
14:00+14wnw333585 0.4 10172453
17:00+14nw44314 0.4 10152232
20:00+9nnw25611 0.0 1016193
20 may, thu
thu2023:00+4ene118517 0.0 101810
02:00+3se119055 0.0 101811
05:00+2sse1187100 0.0 101915
08:00+7ssw116995 0.0 1019351
11:00+11sw2260100 0.0 10191258
14:00+12w0159100 0.1 10191016
17:00+14n135291 0.1 10171485
20:00+11e11715 0.0 101710